• Em Portugal
  • Lista de países
  • Para 7 dias
  • Temperatura da água
  • Mapas de satélite
  • Mapa do tempo
  • Widgets de tempo
  • user-avatar
    Iniciar Sessão

    Previsão horária em Kobdo

    Hoje, 22 Setembro, Sábado

    Tempo Temperatura Precipitação Vento Pressão Humidade
    00:00 +5°C° 0 mm 1 m/s 593 mmHg 41%
    01:00 +5°C° 0 mm 1 m/s 593 mmHg 41%
    02:00 +5°C° 0 mm 1 m/s 593 mmHg 40%
    03:00 +5°C° 0 mm 1 m/s 592 mmHg 40%
    04:00 +5°C° 0.1 mm 1 m/s 593 mmHg 41%
    05:00 +5°C° 0.1 mm 1 m/s 593 mmHg 42%
    06:00 +6°C° 0 mm 1 m/s 593 mmHg 45%
    07:00 +7°C° 0.1 mm 1 m/s 594 mmHg 43%
    08:00 +9°C° 0.1 mm 1 m/s 594 mmHg 42%
    09:00 +10°C° 0.1 mm 1 m/s 595 mmHg 41%
    10:00 +10°C° 0 mm 2 m/s 595 mmHg 39%
    11:00 +12°C° 0 mm 2 m/s 595 mmHg 37%
    12:00 +13°C° 0 mm 2 m/s 596 mmHg 36%
    13:00 +12°C° 0.1 mm 2 m/s 596 mmHg 36%
    14:00 +12°C° 0.1 mm 2 m/s 595 mmHg 37%
    15:00 +12°C° 0.1 mm 2 m/s 595 mmHg 38%
    16:00 +10°C° 0 mm 2 m/s 594 mmHg 40%
    17:00 +9°C° 0 mm 2 m/s 594 mmHg 43%
    18:00 +9°C° 0 mm 1 m/s 593 mmHg 46%
    19:00 +8°C° 0 mm 1 m/s 593 mmHg 47%
    20:00 +8°C° 0 mm 1 m/s 593 mmHg 48%
    21:00 +7°C° 0 mm 1 m/s 593 mmHg 49%
    22:00 +7°C° 0 mm 1 m/s 593 mmHg 50%
    23:00 +6°C° 0 mm 1 m/s 592 mmHg 50%

    Amanhã, 23 Setembro, Domingo

    Tempo Temperatura Precipitação Vento Pressão Humidade
    00:00 +6°C° 0 mm 1 m/s 592 mmHg 51%
    01:00 +5°C° 0 mm 2 m/s 592 mmHg 51%
    02:00 +5°C° 0 mm 2 m/s 592 mmHg 51%
    03:00 +4°C° 0 mm 2 m/s 591 mmHg 51%
    04:00 +4°C° 0 mm 2 m/s 591 mmHg 51%
    05:00 +4°C° 0 mm 2 m/s 591 mmHg 51%
    06:00 +4°C° 0 mm 2 m/s 591 mmHg 51%
    07:00 +6°C° 0 mm 2 m/s 592 mmHg 47%
    08:00 +9°C° 0 mm 1 m/s 593 mmHg 42%
    09:00 +11°C° 0 mm 1 m/s 594 mmHg 38%
    10:00 +12°C° 0 mm 2 m/s 594 mmHg 36%
    11:00 +13°C° 0 mm 2 m/s 594 mmHg 34%
    12:00 +12°C° 0 mm 3 m/s 594 mmHg 33%
    13:00 +12°C° 0 mm 3 m/s 594 mmHg 33%
    14:00 +12°C° 0 mm 3 m/s 593 mmHg 34%
    15:00 +12°C° 0 mm 3 m/s 593 mmHg 34%
    16:00 +11°C° 0 mm 3 m/s 593 mmHg 38%
    17:00 +10°C° 0 mm 2 m/s 592 mmHg 42%
    18:00 +9°C° 0 mm 2 m/s 592 mmHg 45%
    19:00 +9°C° 0 mm 2 m/s 592 mmHg 47%
    20:00 +8°C° 0 mm 2 m/s 592 mmHg 49%
    21:00 +8°C° 0 mm 2 m/s 592 mmHg 51%
    22:00 +7°C° 0 mm 2 m/s 591 mmHg 53%
    23:00 +7°C° 0 mm 2 m/s 591 mmHg 55%

    Depois de amanhã, 24 Setembro, Segunda-feira

    Tempo Temperatura Precipitação Vento Pressão Humidade
    00:00 +6°C° 0 mm 2 m/s 590 mmHg 57%
    01:00 +6°C° 0 mm 2 m/s 590 mmHg 59%
    02:00 +5°C° 0 mm 2 m/s 590 mmHg 60%
    03:00 +5°C° 0 mm 2 m/s 589 mmHg 61%
    04:00 +5°C° 0 mm 2 m/s 589 mmHg 61%
    05:00 +4°C° 0 mm 2 m/s 589 mmHg 61%
    06:00 +4°C° 0 mm 2 m/s 589 mmHg 61%
    07:00 +6°C° 0 mm 2 m/s 590 mmHg 53%
    08:00 +9°C° 0 mm 1 m/s 591 mmHg 46%
    09:00 +10°C° 0 mm 1 m/s 591 mmHg 38%
    10:00 +11°C° 0 mm 1 m/s 592 mmHg 36%
    11:00 +12°C° 0 mm 2 m/s 592 mmHg 33%
    12:00 +13°C° 0 mm 2 m/s 592 mmHg 31%
    13:00 +13°C° 0 mm 2 m/s 591 mmHg 32%
    14:00 +13°C° 0 mm 2 m/s 591 mmHg 33%
    15:00 +13°C° 0 mm 2 m/s 591 mmHg 33%
    16:00 +12°C° 0 mm 2 m/s 590 mmHg 37%
    17:00 +11°C° 0 mm 1 m/s 590 mmHg 41%
    18:00 +10°C° 0 mm 1 m/s 589 mmHg 45%
    19:00 +10°C° 0.2 mm 1 m/s 589 mmHg 47%
    20:00 +9°C° 0.2 mm 1 m/s 589 mmHg 49%
    21:00 +9°C° 0.2 mm 1 m/s 589 mmHg 51%
    22:00 +8°C° 0.4 mm 1 m/s 589 mmHg 55%
    23:00 +8°C° 0.4 mm 1 m/s 588 mmHg 59%

    25 Setembro, Terça-feira

    Tempo Temperatura Precipitação Vento Pressão Humidade
    00:00 +8°C° 0.4 mm 1 m/s 588 mmHg 63%
    01:00 +7°C° 0.1 mm 1 m/s 588 mmHg 65%
    02:00 +7°C° 0.1 mm 1 m/s 587 mmHg 68%
    03:00 +5°C° 0.1 mm 2 m/s 587 mmHg 71%
    04:00 +6°C° 0 mm 1 m/s 587 mmHg 72%
    05:00 +5°C° 0 mm 1 m/s 587 mmHg 73%
    06:00 +5°C° 0 mm 1 m/s 586 mmHg 74%
    07:00 +5°C° 0 mm 2 m/s 587 mmHg 69%
    08:00 +6°C° 0 mm 2 m/s 587 mmHg 64%
    09:00 +7°C° 0 mm 2 m/s 588 mmHg 58%
    10:00 +7°C° 0.1 mm 3 m/s 588 mmHg 57%
    11:00 +7°C° 0.1 mm 3 m/s 588 mmHg 55%
    12:00 +7°C° 0.1 mm 3 m/s 588 mmHg 53%
    13:00 +6°C° 0 mm 4 m/s 588 mmHg 50%
    14:00 +6°C° 0 mm 5 m/s 588 mmHg 47%
    15:00 +4°C° 0 mm 6 m/s 588 mmHg 44%
    16:00 +3°C° 0 mm 6 m/s 588 mmHg 47%
    17:00 +2°C° 0 mm 5 m/s 588 mmHg 50%
    18:00 +3°C° 0 mm 4 m/s 588 mmHg 53%
    19:00 +1°C° 0.1 mm 4 m/s 589 mmHg 55%
    20:00 +1°C° 0.1 mm 4 m/s 589 mmHg 58%
    21:00 0°C° 0.1 mm 4 m/s 589 mmHg 60%
    22:00 +1°C° 0.2 mm 3 m/s 589 mmHg 62%
    23:00 0°C° 0.2 mm 3 m/s 589 mmHg 64%

    26 Setembro, Quarta-feira

    Tempo Temperatura Precipitação Vento Pressão Humidade
    00:00 0°C° 0.2 mm 3 m/s 589 mmHg 66%
    01:00 0°C° 0.5 mm 3 m/s 589 mmHg 67%
    02:00 0°C° 0.5 mm 3 m/s 590 mmHg 69%
    03:00 0°C° 0.5 mm 3 m/s 590 mmHg 70%
    04:00 0°C° 0.5 mm 3 m/s 590 mmHg 71%
    05:00 0°C° 0.5 mm 3 m/s 590 mmHg 72%
    06:00 -1°C° 0.5 mm 2 m/s 591 mmHg 73%
    07:00 0°C° 0.2 mm 3 m/s 591 mmHg 69%
    08:00 +1°C° 0.2 mm 3 m/s 592 mmHg 65%
    09:00 +1°C° 0.2 mm 3 m/s 592 mmHg 61%
    10:00 +2°C° 0 mm 3 m/s 592 mmHg 58%
    11:00 +3°C° 0 mm 3 m/s 592 mmHg 55%
    12:00 +4°C° 0 mm 3 m/s 593 mmHg 51%
    13:00 +4°C° 0 mm 3 m/s 593 mmHg 49%
    14:00 +5°C° 0 mm 3 m/s 593 mmHg 47%
    15:00 +5°C° 0 mm 3 m/s 593 mmHg 45%
    16:00 +5°C° 0 mm 2 m/s 593 mmHg 48%
    17:00 +4°C° 0 mm 2 m/s 593 mmHg 50%
    18:00 +4°C° 0 mm 1 m/s 593 mmHg 53%
    19:00 +3°C° 0 mm 1 m/s 593 mmHg 54%
    20:00 +3°C° 0 mm 1 m/s 594 mmHg 56%
    21:00 +2°C° 0 mm 1 m/s 594 mmHg 57%
    22:00 +2°C° 0 mm 1 m/s 594 mmHg 57%
    23:00 +1°C° 0 mm 1 m/s 594 mmHg 57%

    27 Setembro, Quinta-feira

    Tempo Temperatura Precipitação Vento Pressão Humidade
    00:00 +1°C° 0 mm 1 m/s 594 mmHg 57%
    01:00 +1°C° 0 mm 1 m/s 594 mmHg 57%
    02:00 +1°C° 0 mm 1 m/s 594 mmHg 57%
    03:00 +1°C° 0 mm 1 m/s 594 mmHg 56%
    04:00 0°C° 0 mm 1 m/s 594 mmHg 56%
    05:00 0°C° 0 mm 1 m/s 595 mmHg 55%
    06:00 0°C° 0 mm 1 m/s 595 mmHg 55%
    07:00 +2°C° 0 mm 1 m/s 596 mmHg 51%
    08:00 +3°C° 0 mm 1 m/s 596 mmHg 47%
    09:00 +4°C° 0 mm 1 m/s 597 mmHg 44%
    10:00 +5°C° 0 mm 1 m/s 597 mmHg 41%
    11:00 +6°C° 0 mm 1 m/s 597 mmHg 39%
    12:00 +7°C° 0 mm 1 m/s 597 mmHg 36%
    13:00 +7°C° 0 mm 1 m/s 597 mmHg 37%
    14:00 +7°C° 0 mm 1 m/s 597 mmHg 37%
    15:00 +6°C° 0 mm 2 m/s 597 mmHg 38%
    16:00 +6°C° 0 mm 1 m/s 597 mmHg 41%
    17:00 +5°C° 0 mm 1 m/s 597 mmHg 45%
    18:00 +4°C° 0 mm 1 m/s 596 mmHg 48%
    19:00 +3°C° 0 mm 1 m/s 596 mmHg 49%
    20:00 +3°C° 0 mm 1 m/s 596 mmHg 50%
    21:00 +2°C° 0 mm 1 m/s 597 mmHg 51%
    22:00 +1°C° 0 mm 0 m/s 596 mmHg 51%
    23:00 +1°C° 0 mm 0 m/s 596 mmHg 51%
    Mostrar mais